Year,Month,Day,Hour,Minute,Value (Times are PST for temperature in C)
2015,02,23,00,00,2.50
2015,02,23,00,01,2.50
2015,02,23,00,02,2.50
2015,02,23,00,03,2.50
2015,02,23,00,04,2.50
2015,02,23,00,05,2.50
2015,02,23,00,06,2.50
2015,02,23,00,07,2.40
2015,02,23,00,08,2.40
2015,02,23,00,09,2.40
2015,02,23,00,10,2.30
2015,02,23,00,11,2.30
2015,02,23,00,12,2.30
2015,02,23,00,13,2.30
2015,02,23,00,14,2.30
2015,02,23,00,15,2.30
2015,02,23,00,16,2.30
2015,02,23,00,17,2.20
2015,02,23,00,18,2.20
2015,02,23,00,19,2.20
2015,02,23,00,20,2.20
2015,02,23,00,21,2.20
2015,02,23,00,22,2.20
2015,02,23,00,23,2.20
2015,02,23,00,24,2.20
2015,02,23,00,25,2.20
2015,02,23,00,26,2.20
2015,02,23,00,27,2.20
2015,02,23,00,28,2.20
2015,02,23,00,29,2.20
2015,02,23,00,30,2.20
2015,02,23,00,31,2.20
2015,02,23,00,32,2.20
2015,02,23,00,33,2.20
2015,02,23,00,34,2.20
2015,02,23,00,35,2.20
2015,02,23,00,36,2.20
2015,02,23,00,37,2.20
2015,02,23,00,38,2.20
2015,02,23,00,39,2.20
2015,02,23,00,40,2.20
2015,02,23,00,41,2.20
2015,02,23,00,42,2.20
2015,02,23,00,43,2.20
2015,02,23,00,44,2.20
2015,02,23,00,45,2.20
2015,02,23,00,46,2.20
2015,02,23,00,47,2.30
2015,02,23,00,48,2.30
2015,02,23,00,49,2.30
2015,02,23,00,50,2.40
2015,02,23,00,51,2.30
2015,02,23,00,52,2.30
2015,02,23,00,53,2.40
2015,02,23,00,54,2.40
2015,02,23,00,55,2.40
2015,02,23,00,56,2.30
2015,02,23,00,57,2.30
2015,02,23,00,58,2.30
2015,02,23,00,59,2.30
2015,02,23,01,00,2.30
2015,02,23,01,01,2.30
2015,02,23,01,02,2.30
2015,02,23,01,03,2.40
2015,02,23,01,04,2.40
2015,02,23,01,05,2.40
2015,02,23,01,06,2.40
2015,02,23,01,07,2.40
2015,02,23,01,08,2.40
2015,02,23,01,09,2.40
2015,02,23,01,10,2.40
2015,02,23,01,11,2.40
2015,02,23,01,12,2.40
2015,02,23,01,13,2.40
2015,02,23,01,14,2.40
2015,02,23,01,15,2.40
2015,02,23,01,16,2.40
2015,02,23,01,17,2.40
2015,02,23,01,18,2.40
2015,02,23,01,19,2.40
2015,02,23,01,20,2.40
2015,02,23,01,21,2.40
2015,02,23,01,22,2.40
2015,02,23,01,23,2.40
2015,02,23,01,24,2.40
2015,02,23,01,25,2.40
2015,02,23,01,26,2.40
2015,02,23,01,27,2.50
2015,02,23,01,28,2.50
2015,02,23,01,29,2.40
2015,02,23,01,30,2.40
2015,02,23,01,31,2.40
2015,02,23,01,32,2.40
2015,02,23,01,33,2.40
2015,02,23,01,34,2.40
2015,02,23,01,35,2.40
2015,02,23,01,36,2.40
2015,02,23,01,37,2.40
2015,02,23,01,38,2.40
2015,02,23,01,39,2.40
2015,02,23,01,40,2.40
2015,02,23,01,41,2.40
2015,02,23,01,42,2.40
2015,02,23,01,43,2.40
2015,02,23,01,44,2.40
2015,02,23,01,45,2.40
2015,02,23,01,46,2.40
2015,02,23,01,47,2.40
2015,02,23,01,48,2.40
2015,02,23,01,49,2.40
2015,02,23,01,50,2.40
2015,02,23,01,51,2.40
2015,02,23,01,52,2.30
2015,02,23,01,53,2.30
2015,02,23,01,54,2.30
2015,02,23,01,55,2.30
2015,02,23,01,56,2.30
2015,02,23,01,57,2.30
2015,02,23,01,58,2.30
2015,02,23,01,59,2.30
2015,02,23,02,00,2.30
2015,02,23,02,01,2.40
2015,02,23,02,02,2.40
2015,02,23,02,03,2.40
2015,02,23,02,04,2.40
2015,02,23,02,05,2.40
2015,02,23,02,06,2.30
2015,02,23,02,07,2.40
2015,02,23,02,08,2.40
2015,02,23,02,09,2.40
2015,02,23,02,10,2.40
2015,02,23,02,11,2.40
2015,02,23,02,12,2.40
2015,02,23,02,13,2.40
2015,02,23,02,14,2.40
2015,02,23,02,15,2.40
2015,02,23,02,16,2.40
2015,02,23,02,17,2.40
2015,02,23,02,18,2.40
2015,02,23,02,19,2.40
2015,02,23,02,20,2.40
2015,02,23,02,21,2.40
2015,02,23,02,22,2.40
2015,02,23,02,23,2.30
2015,02,23,02,24,2.30
2015,02,23,02,25,2.30
2015,02,23,02,26,2.30
2015,02,23,02,27,2.30
2015,02,23,02,28,2.30
2015,02,23,02,29,2.30
2015,02,23,02,30,2.30
2015,02,23,02,31,2.30
2015,02,23,02,32,2.30
2015,02,23,02,33,2.30
2015,02,23,02,34,2.20
2015,02,23,02,35,2.20
2015,02,23,02,36,2.20
2015,02,23,02,37,2.20
2015,02,23,02,38,2.20
2015,02,23,02,39,2.20
2015,02,23,02,40,2.20
2015,02,23,02,41,2.20
2015,02,23,02,42,2.20
2015,02,23,02,43,2.20
2015,02,23,02,44,2.20
2015,02,23,02,45,2.20
2015,02,23,02,46,2.20
2015,02,23,02,47,2.20
2015,02,23,02,48,2.20
2015,02,23,02,49,2.20
2015,02,23,02,50,2.20
2015,02,23,02,51,2.10
2015,02,23,02,52,2.10
2015,02,23,02,53,2.10
2015,02,23,02,54,2.10
2015,02,23,02,55,2.10
2015,02,23,02,56,2.10
2015,02,23,02,57,2.10
2015,02,23,02,58,2.10
2015,02,23,02,59,2.10
2015,02,23,03,00,2.20
2015,02,23,03,01,2.20
2015,02,23,03,02,2.20
2015,02,23,03,03,2.20
2015,02,23,03,04,2.20
2015,02,23,03,05,2.20
2015,02,23,03,06,2.20
2015,02,23,03,07,2.20
2015,02,23,03,08,2.20
2015,02,23,03,09,2.20
2015,02,23,03,10,2.20
2015,02,23,03,11,2.10
2015,02,23,03,12,2.10
2015,02,23,03,13,2.10
2015,02,23,03,14,2.10
2015,02,23,03,15,2.10
2015,02,23,03,16,2.10
2015,02,23,03,17,2.10
2015,02,23,03,18,2.10
2015,02,23,03,19,2.10
2015,02,23,03,20,2.10
2015,02,23,03,21,2.10
2015,02,23,03,22,2.10
2015,02,23,03,23,2.10
2015,02,23,03,24,2.10
2015,02,23,03,25,2.10
2015,02,23,03,26,2.00
2015,02,23,03,27,2.00
2015,02,23,03,28,2.00
2015,02,23,03,29,2.00
2015,02,23,03,30,2.00
2015,02,23,03,31,2.00
2015,02,23,03,32,1.90
2015,02,23,03,33,1.90
2015,02,23,03,34,1.90
2015,02,23,03,35,1.90
2015,02,23,03,36,2.00
2015,02,23,03,37,1.90
2015,02,23,03,38,1.90
2015,02,23,03,39,1.90
2015,02,23,03,40,1.90
2015,02,23,03,41,1.90
2015,02,23,03,42,1.90
2015,02,23,03,43,1.90
2015,02,23,03,44,2.00
2015,02,23,03,45,2.00
2015,02,23,03,46,2.00
2015,02,23,03,47,2.00
2015,02,23,03,48,2.00
2015,02,23,03,49,2.00
2015,02,23,03,50,2.10
2015,02,23,03,51,2.10
2015,02,23,03,52,2.10
2015,02,23,03,53,2.20
2015,02,23,03,54,2.20
2015,02,23,03,55,2.20
2015,02,23,03,56,2.20
2015,02,23,03,57,2.20
2015,02,23,03,58,2.20
2015,02,23,03,59,2.20
2015,02,23,04,00,2.10
2015,02,23,04,01,2.10
2015,02,23,04,02,2.10
2015,02,23,04,03,2.10
2015,02,23,04,04,2.10
2015,02,23,04,05,2.10
2015,02,23,04,06,2.00
2015,02,23,04,07,2.00
2015,02,23,04,08,2.00
2015,02,23,04,09,2.00
2015,02,23,04,10,1.90
2015,02,23,04,11,1.90
2015,02,23,04,12,1.90
2015,02,23,04,13,1.90
2015,02,23,04,14,1.90
2015,02,23,04,15,1.90
2015,02,23,04,16,1.80
2015,02,23,04,17,1.80
2015,02,23,04,18,1.80
2015,02,23,04,19,1.80
2015,02,23,04,20,1.80
2015,02,23,04,21,1.80
2015,02,23,04,22,1.80
2015,02,23,04,23,1.90
2015,02,23,04,24,1.90
2015,02,23,04,25,1.90
2015,02,23,04,26,1.90
2015,02,23,04,27,1.90
2015,02,23,04,28,1.90
2015,02,23,04,29,1.90
2015,02,23,04,30,1.90
2015,02,23,04,31,1.90
2015,02,23,04,32,1.90
2015,02,23,04,33,1.90
2015,02,23,04,34,1.90
2015,02,23,04,35,1.90
2015,02,23,04,36,1.90
2015,02,23,04,37,1.90
2015,02,23,04,38,1.90
2015,02,23,04,39,1.90
2015,02,23,04,40,1.90
2015,02,23,04,41,1.90
2015,02,23,04,42,2.00
2015,02,23,04,43,2.00
2015,02,23,04,44,2.00
2015,02,23,04,45,2.00
2015,02,23,04,46,2.00
2015,02,23,04,47,1.90
2015,02,23,04,48,1.90
2015,02,23,04,49,1.90
2015,02,23,04,50,1.90
2015,02,23,04,51,1.90
2015,02,23,04,52,1.90
2015,02,23,04,53,1.90
2015,02,23,04,54,1.90
2015,02,23,04,55,1.80
2015,02,23,04,56,1.80
2015,02,23,04,57,1.80
2015,02,23,04,58,1.80
2015,02,23,04,59,1.90
2015,02,23,05,00,1.90
2015,02,23,05,01,1.90
2015,02,23,05,02,1.90
2015,02,23,05,03,1.90
2015,02,23,05,04,1.90
2015,02,23,05,05,1.90
2015,02,23,05,06,1.90
2015,02,23,05,07,1.90
2015,02,23,05,08,1.90
2015,02,23,05,09,1.90
2015,02,23,05,10,1.90
2015,02,23,05,11,1.90
2015,02,23,05,12,1.90
2015,02,23,05,13,1.90
2015,02,23,05,14,1.90
2015,02,23,05,15,1.90
2015,02,23,05,16,1.90
2015,02,23,05,17,1.90
2015,02,23,05,18,1.90
2015,02,23,05,19,1.90
2015,02,23,05,20,1.90
2015,02,23,05,21,1.90
2015,02,23,05,22,1.90
2015,02,23,05,23,1.90
2015,02,23,05,24,1.80
2015,02,23,05,25,1.80
2015,02,23,05,26,1.80
2015,02,23,05,27,1.80
2015,02,23,05,28,1.80
2015,02,23,05,29,1.80
2015,02,23,05,30,1.80
2015,02,23,05,31,1.80
2015,02,23,05,32,1.80
2015,02,23,05,33,1.80
2015,02,23,05,34,1.80
2015,02,23,05,35,1.80
2015,02,23,05,36,1.80
2015,02,23,05,37,1.80
2015,02,23,05,38,1.80
2015,02,23,05,39,1.80
2015,02,23,05,40,1.80
2015,02,23,05,41,1.80
2015,02,23,05,42,1.70
2015,02,23,05,43,1.70
2015,02,23,05,44,1.70
2015,02,23,05,45,1.60
2015,02,23,05,46,1.60
2015,02,23,05,47,1.60
2015,02,23,05,48,1.60
2015,02,23,05,49,1.60
2015,02,23,05,50,1.70
2015,02,23,05,51,1.70
2015,02,23,05,52,1.70
2015,02,23,05,53,1.70
2015,02,23,05,54,1.80
2015,02,23,05,55,1.80
2015,02,23,05,56,1.80
2015,02,23,05,57,1.80
2015,02,23,05,58,1.80
2015,02,23,05,59,1.80
2015,02,23,06,00,1.70
2015,02,23,06,01,1.70
2015,02,23,06,02,1.70
2015,02,23,06,03,1.70
2015,02,23,06,04,1.70
2015,02,23,06,05,1.70
2015,02,23,06,06,1.70
2015,02,23,06,07,1.70
2015,02,23,06,08,1.70
2015,02,23,06,09,1.70
2015,02,23,06,10,1.70
2015,02,23,06,11,1.70
2015,02,23,06,12,1.70
2015,02,23,06,13,1.70
2015,02,23,06,14,1.70
2015,02,23,06,15,1.70
2015,02,23,06,16,1.70
2015,02,23,06,17,1.70
2015,02,23,06,18,1.70
2015,02,23,06,19,1.70
2015,02,23,06,20,1.70
2015,02,23,06,21,1.70
2015,02,23,06,22,1.70
2015,02,23,06,23,1.70
2015,02,23,06,24,1.70
2015,02,23,06,25,1.70
2015,02,23,06,26,1.70
2015,02,23,06,27,1.60
2015,02,23,06,28,1.60
2015,02,23,06,29,1.60
2015,02,23,06,30,1.50
2015,02,23,06,31,1.50
2015,02,23,06,32,1.50
2015,02,23,06,33,1.40
2015,02,23,06,34,1.40
2015,02,23,06,35,1.40
2015,02,23,06,36,1.50
2015,02,23,06,37,1.50
2015,02,23,06,38,1.50
2015,02,23,06,39,1.60
2015,02,23,06,40,1.60
2015,02,23,06,41,1.60
2015,02,23,06,42,1.60
2015,02,23,06,43,1.70
2015,02,23,06,44,1.70
2015,02,23,06,45,1.70
2015,02,23,06,46,1.70
2015,02,23,06,47,1.70
2015,02,23,06,48,1.60
2015,02,23,06,49,1.60
2015,02,23,06,50,1.60
2015,02,23,06,51,1.60
2015,02,23,06,52,1.60
2015,02,23,06,53,1.60
2015,02,23,06,54,1.60
2015,02,23,06,55,1.60
2015,02,23,06,56,1.60
2015,02,23,06,57,1.60
2015,02,23,06,58,1.60
2015,02,23,06,59,1.50
2015,02,23,07,00,1.50
2015,02,23,07,01,1.50
2015,02,23,07,02,1.50
2015,02,23,07,03,1.60
2015,02,23,07,04,1.60
2015,02,23,07,05,1.60
2015,02,23,07,06,1.60
2015,02,23,07,07,1.60
2015,02,23,07,08,1.50
2015,02,23,07,09,1.50
2015,02,23,07,10,1.40
2015,02,23,07,11,1.40
2015,02,23,07,12,1.40
2015,02,23,07,13,1.30
2015,02,23,07,14,1.30
2015,02,23,07,15,1.30
2015,02,23,07,16,1.30
2015,02,23,07,17,1.30
2015,02,23,07,18,1.30
2015,02,23,07,19,1.40
2015,02,23,07,20,1.40
2015,02,23,07,21,1.40
2015,02,23,07,22,1.40
2015,02,23,07,23,1.50
2015,02,23,07,24,1.40
2015,02,23,07,25,1.40
2015,02,23,07,26,1.40
2015,02,23,07,27,1.40
2015,02,23,07,28,1.40
2015,02,23,07,29,1.50
2015,02,23,07,30,1.50
2015,02,23,07,31,1.60
2015,02,23,07,32,1.60
2015,02,23,07,33,1.60
2015,02,23,07,34,1.60
2015,02,23,07,35,1.60
2015,02,23,07,36,1.60
2015,02,23,07,37,1.60
2015,02,23,07,38,1.60
2015,02,23,07,39,1.60
2015,02,23,07,40,1.70
2015,02,23,07,41,1.70
2015,02,23,07,42,1.70
2015,02,23,07,43,1.70
2015,02,23,07,44,1.70
2015,02,23,07,45,1.70
2015,02,23,07,46,1.70
2015,02,23,07,47,1.70
2015,02,23,07,48,1.80
2015,02,23,07,49,1.80
2015,02,23,07,50,1.80
2015,02,23,07,51,1.80
2015,02,23,07,52,1.80
2015,02,23,07,53,1.80
2015,02,23,07,54,1.80
2015,02,23,07,55,1.80
2015,02,23,07,56,1.80
2015,02,23,07,57,1.90
2015,02,23,07,58,1.90
2015,02,23,07,59,1.90
2015,02,23,08,00,1.90
2015,02,23,08,01,1.90
2015,02,23,08,02,1.90
2015,02,23,08,03,1.90
2015,02,23,08,04,1.90
2015,02,23,08,05,1.90
2015,02,23,08,06,2.00
2015,02,23,08,07,2.00
2015,02,23,08,08,2.00
2015,02,23,08,09,2.00
2015,02,23,08,10,2.00
2015,02,23,08,11,2.10
2015,02,23,08,12,2.10
2015,02,23,08,13,2.20
2015,02,23,08,14,2.30
2015,02,23,08,15,2.30
2015,02,23,08,16,2.40
2015,02,23,08,17,2.40
2015,02,23,08,18,2.40
2015,02,23,08,19,2.40
2015,02,23,08,20,2.50
2015,02,23,08,21,2.50
2015,02,23,08,22,2.60
2015,02,23,08,23,2.60
2015,02,23,08,24,2.60
2015,02,23,08,25,2.70
2015,02,23,08,26,2.70
2015,02,23,08,27,2.70
2015,02,23,08,28,2.80
2015,02,23,08,29,2.80
2015,02,23,08,30,2.80
2015,02,23,08,31,2.90
2015,02,23,08,32,2.90
2015,02,23,08,33,3.00
2015,02,23,08,34,3.00
2015,02,23,08,35,3.10
2015,02,23,08,36,3.10
2015,02,23,08,37,3.20
2015,02,23,08,38,3.20
2015,02,23,08,39,3.30
2015,02,23,08,40,3.40
2015,02,23,08,41,3.50
2015,02,23,08,42,3.50
2015,02,23,08,43,3.60
2015,02,23,08,44,3.60
2015,02,23,08,45,3.60
2015,02,23,08,46,3.60
2015,02,23,08,47,3.60
2015,02,23,08,48,3.60
2015,02,23,08,49,3.60
2015,02,23,08,50,3.60
2015,02,23,08,51,3.60
2015,02,23,08,52,3.60
2015,02,23,08,53,3.60
2015,02,23,08,54,3.60
2015,02,23,08,55,3.60
2015,02,23,08,56,3.60
2015,02,23,08,57,3.60
2015,02,23,08,58,3.60
2015,02,23,08,59,3.60
2015,02,23,09,00,3.60
2015,02,23,09,01,3.70
2015,02,23,09,02,3.70
2015,02,23,09,03,3.70
2015,02,23,09,04,3.70
2015,02,23,09,05,3.70
2015,02,23,09,06,3.80
2015,02,23,09,07,3.80
2015,02,23,09,08,3.80
2015,02,23,09,09,3.80
2015,02,23,09,10,3.80
2015,02,23,09,11,3.80
2015,02,23,09,12,3.80
2015,02,23,09,13,3.80
2015,02,23,09,14,3.80
2015,02,23,09,15,3.80
2015,02,23,09,16,3.80
2015,02,23,09,17,3.80
2015,02,23,09,18,3.80
2015,02,23,09,19,3.80
2015,02,23,09,20,3.80
2015,02,23,09,21,3.90
2015,02,23,09,22,3.90
2015,02,23,09,23,4.00
2015,02,23,09,24,4.00
2015,02,23,09,25,4.10
2015,02,23,09,26,4.10
2015,02,23,09,27,4.20
2015,02,23,09,28,4.20
2015,02,23,09,29,4.20
2015,02,23,09,30,4.30
2015,02,23,09,31,4.30
2015,02,23,09,32,4.40
2015,02,23,09,33,4.50
2015,02,23,09,34,4.60
2015,02,23,09,35,4.70
2015,02,23,09,36,4.80
2015,02,23,09,37,4.80
2015,02,23,09,38,4.90
2015,02,23,09,39,4.90
2015,02,23,09,40,5.00
2015,02,23,09,41,5.00
2015,02,23,09,42,5.10
2015,02,23,09,43,5.10
2015,02,23,09,44,5.10
2015,02,23,09,45,5.10
2015,02,23,09,46,5.20
2015,02,23,09,47,5.20
2015,02,23,09,48,5.20
2015,02,23,09,49,5.20
2015,02,23,09,50,5.20
2015,02,23,09,51,5.20
2015,02,23,09,52,5.20
2015,02,23,09,53,5.30
2015,02,23,09,54,5.30
2015,02,23,09,55,5.20
2015,02,23,09,56,5.30
2015,02,23,09,57,5.30
2015,02,23,09,58,5.30
2015,02,23,09,59,5.40
2015,02,23,10,00,5.40
2015,02,23,10,01,5.40
2015,02,23,10,02,5.40
2015,02,23,10,03,5.40
2015,02,23,10,04,5.50
2015,02,23,10,05,5.50
2015,02,23,10,06,5.50
2015,02,23,10,07,5.50
2015,02,23,10,08,5.60
2015,02,23,10,09,5.60
2015,02,23,10,10,5.70
2015,02,23,10,11,5.70
2015,02,23,10,12,5.70
2015,02,23,10,13,5.70
2015,02,23,10,14,5.70
2015,02,23,10,15,5.70
2015,02,23,10,16,5.80
2015,02,23,10,17,5.80
2015,02,23,10,18,5.70
2015,02,23,10,19,5.70
2015,02,23,10,20,5.80
2015,02,23,10,21,5.80
2015,02,23,10,22,5.80
2015,02,23,10,23,5.80
2015,02,23,10,24,5.80
2015,02,23,10,25,5.90
2015,02,23,10,26,5.90
2015,02,23,10,27,6.00
2015,02,23,10,28,6.00
2015,02,23,10,29,6.10
2015,02,23,10,30,6.10
2015,02,23,10,31,6.20
2015,02,23,10,32,6.20
2015,02,23,10,33,6.30
2015,02,23,10,34,6.30
2015,02,23,10,35,6.30
2015,02,23,10,36,6.40
2015,02,23,10,37,6.40
2015,02,23,10,38,6.40
2015,02,23,10,39,6.40
2015,02,23,10,40,6.50
2015,02,23,10,41,6.60
2015,02,23,10,42,6.70
2015,02,23,10,43,6.70
2015,02,23,10,44,6.80
2015,02,23,10,45,6.80
2015,02,23,10,46,6.90
2015,02,23,10,47,7.00
2015,02,23,10,48,7.00
2015,02,23,10,49,7.00
2015,02,23,10,50,7.00
2015,02,23,10,51,7.10
2015,02,23,10,52,7.10
2015,02,23,10,53,7.10
2015,02,23,10,54,7.20
2015,02,23,10,55,7.20
2015,02,23,10,56,7.20
2015,02,23,10,57,7.20
2015,02,23,10,58,7.20
2015,02,23,10,59,7.20
2015,02,23,11,00,7.30
2015,02,23,11,01,7.30
2015,02,23,11,02,7.30
2015,02,23,11,03,7.40
2015,02,23,11,04,7.40
2015,02,23,11,05,7.40
2015,02,23,11,06,7.30
2015,02,23,11,07,7.40
2015,02,23,11,08,7.40
2015,02,23,11,09,7.40
2015,02,23,11,10,7.40
2015,02,23,11,11,7.50
2015,02,23,11,12,7.50
2015,02,23,11,13,7.60
2015,02,23,11,14,7.60
2015,02,23,11,15,7.60
2015,02,23,11,16,7.70
2015,02,23,11,17,7.70
2015,02,23,11,18,7.70
2015,02,23,11,19,7.80
2015,02,23,11,20,7.80
2015,02,23,11,21,7.80
2015,02,23,11,22,7.80
2015,02,23,11,23,7.80
2015,02,23,11,24,7.80
2015,02,23,11,25,7.80
2015,02,23,11,26,7.80
2015,02,23,11,27,7.80
2015,02,23,11,28,7.80
2015,02,23,11,29,7.90
2015,02,23,11,30,7.90
2015,02,23,11,31,7.90
2015,02,23,11,32,7.90
2015,02,23,11,33,8.00
2015,02,23,11,34,8.00
2015,02,23,11,35,8.00
2015,02,23,11,36,8.10
2015,02,23,11,37,8.10
2015,02,23,11,38,8.10
2015,02,23,11,39,8.10
2015,02,23,11,40,8.10
2015,02,23,11,41,8.10
2015,02,23,11,42,8.10
2015,02,23,11,43,8.10
2015,02,23,11,44,8.10
2015,02,23,11,45,8.10
2015,02,23,11,46,8.20
2015,02,23,11,47,8.20
2015,02,23,11,48,8.20
2015,02,23,11,49,8.20
2015,02,23,11,50,8.20
2015,02,23,11,51,8.20
2015,02,23,11,52,8.30
2015,02,23,11,53,8.30
2015,02,23,11,54,8.30
2015,02,23,11,55,8.30
2015,02,23,11,56,8.30
2015,02,23,11,57,8.30
2015,02,23,11,58,8.40
2015,02,23,11,59,8.40
2015,02,23,12,00,8.40
2015,02,23,12,01,8.50
2015,02,23,12,02,8.50
2015,02,23,12,03,8.60
2015,02,23,12,04,8.60
2015,02,23,12,05,8.70
2015,02,23,12,06,8.60
2015,02,23,12,07,8.60
2015,02,23,12,08,8.60
2015,02,23,12,09,8.60
2015,02,23,12,10,8.70
2015,02,23,12,11,8.70
2015,02,23,12,12,8.70
2015,02,23,12,13,8.70
2015,02,23,12,14,8.70
2015,02,23,12,15,8.70
2015,02,23,12,16,8.70
2015,02,23,12,17,8.70
2015,02,23,12,18,8.70
2015,02,23,12,19,8.60
2015,02,23,12,20,8.60
2015,02,23,12,21,8.60
2015,02,23,12,22,8.60
2015,02,23,12,23,8.60
2015,02,23,12,24,8.60
2015,02,23,12,25,8.60
2015,02,23,12,26,8.60
2015,02,23,12,27,8.60
2015,02,23,12,28,8.60
2015,02,23,12,29,8.60
2015,02,23,12,30,8.60
2015,02,23,12,31,8.60
2015,02,23,12,32,8.60
2015,02,23,12,33,8.60
2015,02,23,12,34,8.60
2015,02,23,12,35,8.60
2015,02,23,12,36,8.60
2015,02,23,12,37,8.60
2015,02,23,12,38,8.60
2015,02,23,12,39,8.60
2015,02,23,12,40,8.70
2015,02,23,12,41,8.70
2015,02,23,12,42,8.70
2015,02,23,12,43,8.70
2015,02,23,12,44,8.70
2015,02,23,12,45,8.80
2015,02,23,12,46,8.80
2015,02,23,12,47,8.90
2015,02,23,12,48,9.00
2015,02,23,12,49,9.10
2015,02,23,12,50,9.20
2015,02,23,12,51,9.20
2015,02,23,12,52,9.30
2015,02,23,12,53,9.30
2015,02,23,12,54,9.20
2015,02,23,12,55,9.30
2015,02,23,12,56,9.30
2015,02,23,12,57,9.30
2015,02,23,12,58,9.30
2015,02,23,12,59,9.30
2015,02,23,13,00,9.30
2015,02,23,13,01,9.20
2015,02,23,13,02,9.20
2015,02,23,13,03,9.20
2015,02,23,13,04,9.20
2015,02,23,13,05,9.20
2015,02,23,13,06,9.20
2015,02,23,13,07,9.20
2015,02,23,13,08,9.20
2015,02,23,13,09,9.20
2015,02,23,13,10,9.30
2015,02,23,13,11,9.30
2015,02,23,13,12,9.40
2015,02,23,13,13,9.40
2015,02,23,13,14,9.50
2015,02,23,13,15,9.50
2015,02,23,13,16,9.50
2015,02,23,13,17,9.60
2015,02,23,13,18,9.60
2015,02,23,13,19,9.50
2015,02,23,13,20,9.50
2015,02,23,13,21,9.50
2015,02,23,13,22,9.40
2015,02,23,13,23,9.40
2015,02,23,13,24,9.40
2015,02,23,13,25,9.50
2015,02,23,13,26,9.50
2015,02,23,13,27,9.50
2015,02,23,13,28,9.50
2015,02,23,13,29,9.40
2015,02,23,13,30,9.50
2015,02,23,13,31,9.40
2015,02,23,13,32,9.50
2015,02,23,13,33,9.50
2015,02,23,13,34,9.50
2015,02,23,13,35,9.60
2015,02,23,13,36,9.60
2015,02,23,13,37,9.60
2015,02,23,13,38,9.60
2015,02,23,13,39,9.60
2015,02,23,13,40,9.60
2015,02,23,13,41,9.70
2015,02,23,13,42,9.70
2015,02,23,13,43,9.70
2015,02,23,13,44,9.60
2015,02,23,13,45,9.60
2015,02,23,13,46,9.60
2015,02,23,13,47,9.70
2015,02,23,13,48,9.70
2015,02,23,13,49,9.70
2015,02,23,13,50,9.70
2015,02,23,13,51,9.70
2015,02,23,13,52,9.70
2015,02,23,13,53,9.70
2015,02,23,13,54,9.80
2015,02,23,13,55,9.80
2015,02,23,13,56,9.90
2015,02,23,13,57,9.90
2015,02,23,13,58,10.00
2015,02,23,13,59,10.00
2015,02,23,14,00,10.10
2015,02,23,14,01,10.10
2015,02,23,14,02,10.10
2015,02,23,14,03,10.10
2015,02,23,14,04,10.10
2015,02,23,14,05,10.10
2015,02,23,14,06,10.00
2015,02,23,14,07,10.00
2015,02,23,14,08,10.00
2015,02,23,14,09,9.90
2015,02,23,14,10,10.00
2015,02,23,14,11,9.90
2015,02,23,14,12,9.90
2015,02,23,14,13,9.90
2015,02,23,14,14,9.90
2015,02,23,14,15,9.90
2015,02,23,14,16,9.90
2015,02,23,14,17,9.90
2015,02,23,14,18,9.90
2015,02,23,14,19,9.90
2015,02,23,14,20,9.90
2015,02,23,14,21,9.90
2015,02,23,14,22,9.90
2015,02,23,14,23,9.90
2015,02,23,14,24,9.90
2015,02,23,14,25,9.90
2015,02,23,14,26,10.00
2015,02,23,14,27,9.90
2015,02,23,14,28,9.90
2015,02,23,14,29,10.00
2015,02,23,14,30,10.00
2015,02,23,14,31,10.00
2015,02,23,14,32,10.00
2015,02,23,14,33,9.90
2015,02,23,14,34,9.90
2015,02,23,14,35,9.80
2015,02,23,14,36,9.80
2015,02,23,14,37,9.80
2015,02,23,14,38,9.80
2015,02,23,14,39,9.70
2015,02,23,14,40,9.70
2015,02,23,14,41,9.80
2015,02,23,14,42,9.80
2015,02,23,14,43,9.80
2015,02,23,14,44,9.90
2015,02,23,14,45,9.90
2015,02,23,14,46,10.00
2015,02,23,14,47,10.00
2015,02,23,14,48,10.00
2015,02,23,14,49,10.00
2015,02,23,14,50,9.90
2015,02,23,14,51,9.90
2015,02,23,14,52,9.90
2015,02,23,14,53,9.90
2015,02,23,14,54,9.90
2015,02,23,14,55,9.90
2015,02,23,14,56,9.90
2015,02,23,14,57,9.90
2015,02,23,14,58,9.90
2015,02,23,14,59,10.00
2015,02,23,15,00,10.00
2015,02,23,15,01,10.10
2015,02,23,15,02,10.10
2015,02,23,15,03,10.20
2015,02,23,15,04,10.20
2015,02,23,15,05,10.20
2015,02,23,15,06,10.20
2015,02,23,15,07,10.20
2015,02,23,15,08,10.10
2015,02,23,15,09,10.10
2015,02,23,15,10,10.10
2015,02,23,15,11,10.00
2015,02,23,15,12,10.00
2015,02,23,15,13,9.90
2015,02,23,15,14,9.90
2015,02,23,15,15,9.80
2015,02,23,15,16,9.80
2015,02,23,15,17,9.80
2015,02,23,15,18,9.80
2015,02,23,15,19,9.80
2015,02,23,15,20,9.80
2015,02,23,15,21,9.80
2015,02,23,15,22,9.80
2015,02,23,15,23,9.80
2015,02,23,15,24,9.80
2015,02,23,15,25,9.80
2015,02,23,15,26,9.80
2015,02,23,15,27,9.80
2015,02,23,15,28,9.80
2015,02,23,15,29,9.80
2015,02,23,15,30,9.80
2015,02,23,15,31,9.80
2015,02,23,15,32,9.80
2015,02,23,15,33,9.80
2015,02,23,15,34,9.80
2015,02,23,15,35,9.80
2015,02,23,15,36,9.80
2015,02,23,15,37,9.80
2015,02,23,15,38,9.80
2015,02,23,15,39,9.80
2015,02,23,15,40,9.80
2015,02,23,15,41,9.90
2015,02,23,15,42,9.90
2015,02,23,15,43,9.90
2015,02,23,15,44,9.90
2015,02,23,15,45,9.90
2015,02,23,15,46,9.90
2015,02,23,15,47,9.90
2015,02,23,15,48,9.90
2015,02,23,15,49,9.90
2015,02,23,15,50,9.90
2015,02,23,15,51,9.90
2015,02,23,15,52,9.90
2015,02,23,15,53,9.90
2015,02,23,15,54,9.90
2015,02,23,15,55,9.80
2015,02,23,15,56,9.80
2015,02,23,15,57,9.70
2015,02,23,15,58,9.70
2015,02,23,15,59,9.70
2015,02,23,16,00,9.70
2015,02,23,16,01,9.70
2015,02,23,16,02,9.70
2015,02,23,16,03,9.70
2015,02,23,16,04,9.70
2015,02,23,16,05,9.70
2015,02,23,16,06,9.70
2015,02,23,16,07,9.70
2015,02,23,16,08,9.70
2015,02,23,16,09,9.70
2015,02,23,16,10,9.70
2015,02,23,16,11,9.70
2015,02,23,16,12,9.70
2015,02,23,16,13,9.70
2015,02,23,16,14,9.60
2015,02,23,16,15,9.60
2015,02,23,16,16,9.60
2015,02,23,16,17,9.50
2015,02,23,16,18,9.50
2015,02,23,16,19,9.40
2015,02,23,16,20,9.40
2015,02,23,16,21,9.40
2015,02,23,16,22,9.40
2015,02,23,16,23,9.40
2015,02,23,16,24,9.40
2015,02,23,16,25,9.40
2015,02,23,16,26,9.40
2015,02,23,16,27,9.40
2015,02,23,16,28,9.40
2015,02,23,16,29,9.40
2015,02,23,16,30,9.40
2015,02,23,16,31,9.40
2015,02,23,16,32,9.40
2015,02,23,16,33,9.30
2015,02,23,16,34,9.30
2015,02,23,16,35,9.30
2015,02,23,16,36,9.30
2015,02,23,16,37,9.30
2015,02,23,16,38,9.30
2015,02,23,16,39,9.30
2015,02,23,16,40,9.30
2015,02,23,16,41,9.30
2015,02,23,16,42,9.30
2015,02,23,16,43,9.30
2015,02,23,16,44,9.30
2015,02,23,16,45,9.20
2015,02,23,16,46,9.20
2015,02,23,16,47,9.20
2015,02,23,16,48,9.20
2015,02,23,16,49,9.20
2015,02,23,16,50,9.20
2015,02,23,16,51,9.10
2015,02,23,16,52,9.10
2015,02,23,16,53,9.10
2015,02,23,16,54,9.10
2015,02,23,16,55,9.10
2015,02,23,16,56,9.10
2015,02,23,16,57,9.10
2015,02,23,16,58,9.00
2015,02,23,16,59,9.00
2015,02,23,17,00,9.00
2015,02,23,17,01,8.90
2015,02,23,17,02,8.90
2015,02,23,17,03,8.90
2015,02,23,17,04,8.90
2015,02,23,17,05,8.80
2015,02,23,17,06,8.80
2015,02,23,17,07,8.80
2015,02,23,17,08,8.80
2015,02,23,17,09,8.80
2015,02,23,17,10,8.70
2015,02,23,17,11,8.70
2015,02,23,17,12,8.70
2015,02,23,17,13,8.60
2015,02,23,17,14,8.60
2015,02,23,17,15,8.50
2015,02,23,17,16,8.50
2015,02,23,17,17,8.40
2015,02,23,17,18,8.40
2015,02,23,17,19,8.30
2015,02,23,17,20,8.20
2015,02,23,17,21,8.10
2015,02,23,17,22,8.00
2015,02,23,17,23,8.00
2015,02,23,17,24,7.90
2015,02,23,17,25,7.80
2015,02,23,17,26,7.70
2015,02,23,17,27,7.60
2015,02,23,17,28,7.60
2015,02,23,17,29,7.50
2015,02,23,17,30,7.40
2015,02,23,17,31,7.30
2015,02,23,17,32,7.30
2015,02,23,17,33,7.20
2015,02,23,17,34,7.20
2015,02,23,17,35,7.10
2015,02,23,17,36,7.10
2015,02,23,17,37,7.00
2015,02,23,17,38,6.90
2015,02,23,17,39,6.90
2015,02,23,17,40,6.80
2015,02,23,17,41,6.70
2015,02,23,17,42,6.70
2015,02,23,17,43,6.70
2015,02,23,17,44,6.60
2015,02,23,17,45,6.60
2015,02,23,17,46,6.50
2015,02,23,17,47,6.50
2015,02,23,17,48,6.50
2015,02,23,17,49,6.40
2015,02,23,17,50,6.40
2015,02,23,17,51,6.30
2015,02,23,17,52,6.30
2015,02,23,17,53,6.30
2015,02,23,17,54,6.20
2015,02,23,17,55,6.20
2015,02,23,17,56,6.10
2015,02,23,17,57,6.10
2015,02,23,17,58,6.00
2015,02,23,17,59,6.00
2015,02,23,18,00,5.90
2015,02,23,18,01,5.90
2015,02,23,18,02,5.80
2015,02,23,18,03,5.80
2015,02,23,18,04,5.80
2015,02,23,18,05,5.70